Lid_Strength_Index
6 7 8 8 7 8 9 10 12 10 8 9 11 11 9 8 7 7 7 6 5 4 3 2 2 1 2 2 3 1 2 0 0 0 1 0 1 0 -0 -1 -1 -1 -1 -1
7 8 7 6 7 8 9 11 12 10 9 9 10 11 9 8 7 7 6 6 5 4 4 3 2 2 2 2 1 1 0 0 -0 -1 -1 -1 -0 -0 -0 -1 -1 -2 -1 -2
8 7 6 7 8 9 10 10 12 12 10 9 10 12 11 8 7 6 6 5 5 4 4 3 3 2 2 2 1 0 -0 -0 -1 -1 -1 -1 -1 -1 -0 -0 -0 -1 -2 -1
7 6 7 8 9 8 10 8 9 11 12 15 10 16 11 9 9 8 6 6 5 4 4 3 3 2 2 1 0 -0 -0 0 -1 -1 -0 0 1 2 0 0 -1 -1 -2 -1
8 8 8 9 9 7 10 8 9 10 12 12 12 14 12 10 10 9 7 6 5 4 4 3 3 2 2 1 1 0 0 -0 -1 -1 -1 0 1 0 0 -0 -0 -1 -1 -2
7 5 6 8 7 7 7 9 9 9 11 15 13 13 14 11 10 8 7 6 5 4 4 3 2 2 2 1 1 0 0 -0 -0 -1 -0 -0 0 0 1 0 1 0 -0 -1
8 8 7 6 9 7 8 10 14 15 16 16 12 13 12 9 8 7 7 6 5 4 4 3 3 3 2 2 1 1 0 1 -0 -0 -0 -0 -0 -0 0 0 0 0 0 0
11 13 8 7 8 9 9 9 12 17 16 15 12 15 12 7 6 6 6 5 5 4 4 3 3 2 2 2 1 1 1 1 0 0 -0 -0 -1 0 0 -0 0 0 0 -0
11 12 7 7 7 7 9 11 9 14 13 15 14 12 9 7 7 6 6 5 5 4 4 3 3 2 2 2 1 1 1 1 0 0 -0 -0 -0 -0 -0 -1 -1 -0 -1 -1
9 13 8 7 7 6 8 7 12 11 18 18 16 14 13 10 9 7 7 6 5 4 4 3 3 2 2 1 1 0 0 1 0 0 -0 -0 -0 -0 -1 -1 -1 -0 -0 -1
8 10 10 8 9 10 9 10 11 11 13 16 16 15 9 9 8 8 7 6 5 4 4 3 3 2 1 1 2 1 1 1 1 1 0 -0 -0 -0 -0 -0 -0 -0 -0 -0
8 9 12 10 7 7 8 10 11 13 16 13 14 15 8 8 7 6 6 5 4 4 3 3 3 2 2 2 1 2 1 2 2 2 1 0 -0 0 0 -0 -0 -1 -0 -1
7 10 13 12 9 7 9 9 10 10 11 15 14 15 7 7 7 6 6 5 5 4 4 3 3 3 3 2 2 1 1 2 2 2 3 1 0 0 0 0 -0 -0 -0 -0
6 10 12 13 12 9 11 10 9 10 11 13 12 13 10 8 8 7 6 5 5 4 3 3 2 2 2 2 1 1 1 1 1 2 3 2 1 0 1 0 -0 -0 -0 0
7 11 10 10 9 9 11 11 10 11 10 13 12 12 10 8 8 6 5 4 4 4 4 3 3 2 2 2 1 1 1 1 0 1 3 2 1 -0 0 0 -1 -0 -0 -0
7 11 10 12 10 10 12 10 10 10 11 11 11 12 7 7 6 6 5 5 5 4 4 3 3 2 2 2 2 1 1 1 1 1 2 2 2 0 1 0 -0 -0 0 -0
9 10 11 14 10 11 14 11 11 11 10 10 13 10 7 7 6 5 5 4 4 4 3 3 3 2 2 2 1 2 1 1 1 2 2 2 2 1 1 0 -0 -0 0 -0
9 10 11 13 12 18 12 8 8 10 9 8 9 8 7 6 5 4 3 4 4 3 3 3 2 2 1 1 1 1 1 1 1 2 1 1 1 1 1 1 0 -0 0 1
7 9 13 15 15 13 12 9 10 10 11 7 8 7 6 5 5 5 3 3 3 3 2 2 2 1 1 1 1 1 1 1 2 2 2 1 1 1 1 1 1 0 -0 0
8 8 10 13 16 18 12 8 6 7 13 6 6 6 6 5 8 6 3 3 3 2 2 2 1 1 1 1 0 1 1 1 2 2 2 1 1 1 1 1 1 -0 -0 -0
11 11 13 13 14 13 8 7 6 13 12 6 5 5 5 7 5 3 3 3 2 2 2 1 1 2 1 1 1 2 1 2 1 0 1 1 1 1 1 1 -0 1 1 0
11 12 12 12 14 16 6 6 10 7 5 5 4 4 5 4 4 3 3 3 2 2 2 2 2 2 1 1 1 2 2 1 0 0 0 1 1 1 1 1 0 1 1 1
12 9 10 11 11 6 5 5 4 4 5 5 4 3 4 4 4 3 3 3 3 2 2 2 2 2 1 1 2 2 1 1 0 1 1 1 0 0 1 2 1 1 1 2
8 7 9 9 8 6 5 4 3 3 4 4 3 3 3 4 3 3 3 3 3 3 4 3 3 3 3 3 3 3 3 2 1 1 1 0 1 1 0 0 1 1 2 2
8 7 8 9 7 6 5 4 4 4 4 4 3 3 3 3 3 3 4 4 3 4 4 4 4 5 4 4 4 3 3 3 4 3 1 1 1 1 1 0 1 2 1 2
7 8 9 9 6 6 5 3 3 4 4 3 3 3 3 3 4 3 4 4 4 5 4 5 5 5 4 4 4 3 2 2 3 3 2 3 3 2 1 1 1 5 6 7